Weather reports worldwide

Advertisment
St-Sauveur, France (7300): temperature & dewpoint: 15.06.2018 23:00:00 - 21.06.2018 23:00:00 (CEST)St-Sauveur, France (7300): wind speed & gusts: 15.06.2018 23:00:00 - 21.06.2018 23:00:00 (CEST)St-Sauveur, France (7300): wind direction: 15.06.2018 23:00:00 - 21.06.2018 23:00:00 (CEST)St-Sauveur, France (7300): reduced air pressure: 15.06.2018 23:00:00 - 21.06.2018 23:00:00 (CEST)St-Sauveur, France (7300): visibility: 15.06.2018 23:00:00 - 21.06.2018 23:00:00 (CEST)St-Sauveur, France (7300): precipitation: 15.06.2018 23:00:00 - 21.06.2018 23:00:00 (CEST)
Date & Time tt [°C] td [°C] ff [km/h] ff [kn] fx [km/h] fx [kn] dd ppp [hPa] vv [km] rr [mm]
21.06.2018 23:00:00 18,0 11,1 21 12 48 26 NNE 1024,6 - 0,0
21.06.2018 22:00:00 19,1 10,9 26 14 47 26 NNE 1023,7 - 0,0
21.06.2018 21:00:00 20,6 11,5 22 12 44 24 NNE 1023,2 - 0,0
21.06.2018 20:00:00 21,3 13,2 28 15 46 25 NNE 1022,8 - 0,0
21.06.2018 19:00:00 22,3 13,6 23 12 41 22 N 1022,7 - 0,0
21.06.2018 18:00:00 23,0 14,6 24 13 43 23 N 1022,7 - 0,0
21.06.2018 17:00:00 22,6 14,7 24 13 41 22 N 1022,6 30 0,0
21.06.2018 16:00:00 22,8 15,1 20 11 41 22 N 1022,5 - 0,0
21.06.2018 15:00:00 22,0 14,6 26 14 41 22 NNE 1022,5 - 0,0
21.06.2018 14:00:00 21,0 14,4 27 14 47 26 NNE 1022,5 25 0,0
21.06.2018 13:00:00 20,4 15,2 24 13 47 26 NNE 1022,2 - 0,0
21.06.2018 12:00:00 18,9 15,0 29 16 50 27 NNE 1022,0 - 0,0
21.06.2018 11:00:00 17,6 14,9 27 15 44 24 NNE 1022,1 - 0,0
21.06.2018 10:00:00 16,9 14,9 30 16 49 26 NNE 1022,2 - 0,0
21.06.2018 09:00:00 16,2 14,6 31 17 54 29 NNE 1022,1 - 0,0
21.06.2018 08:00:00 15,8 14,5 35 19 52 28 NNE 1021,5 20 0,0
21.06.2018 07:00:00 16,5 14,7 29 16 46 25 NNE 1020,9 - 0,0
21.06.2018 06:00:00 17,0 15,0 18 10 36 20 NNE 1020,2 - 0,0
21.06.2018 05:00:00 18,0 15,3 25 14 42 23 NNE 1020,3 - 0,0
21.06.2018 04:00:00 18,8 16,4 24 13 36 19 N 1020,3 - 0,0
21.06.2018 03:00:00 19,3 16,7 22 12 32 17 N 1020,3 - 0,0
21.06.2018 02:00:00 20,2 16,0 20 11 31 17 NNE 1020,1 30 0,0
21.06.2018 01:00:00 20,7 16,3 22 12 35 19 NNE 1020,0 - 0,0
21.06.2018 00:00:00 21,5 17,3 22 12 31 17 N 1020,1 - 0,0
20.06.2018 23:00:00 21,3 17,5 16 9 29 15 N 1019,8 30 0,0
20.06.2018 22:00:00 23,0 17,2 14 8 25 13 NNW 1019,0 - 0,0
20.06.2018 21:00:00 25,1 17,3 13 7 23 12 N 1018,7 - 0,0
20.06.2018 20:00:00 26,7 18,0 13 7 24 13 N 1018,7 30 0,0
20.06.2018 19:00:00 27,2 18,8 16 9 29 15 N 1018,6 - 0,0
20.06.2018 18:00:00 26,7 18,6 17 9 32 17 N 1018,8 - 0,0
20.06.2018 17:00:00 26,6 19,0 18 10 37 20 N 1019,1 30 0,0
20.06.2018 16:00:00 26,3 19,2 18 10 39 21 N 1019,3 - 0,0
20.06.2018 15:00:00 26,4 19,0 21 11 37 20 N 1019,6 - 0,0
20.06.2018 14:00:00 25,9 19,8 23 12 37 20 N 1019,8 - 0,0
20.06.2018 13:00:00 25,0 19,4 22 12 35 19 N 1020,2 - 0,0
20.06.2018 12:00:00 24,0 19,1 16 9 25 13 NNE 1020,3 - 0,0
20.06.2018 11:00:00 23,0 18,3 15 8 23 13 NNE 1020,2 20 0,0
20.06.2018 10:00:00 21,6 17,6 13 7 24 13 NNE 1020,3 - 0,0
20.06.2018 09:00:00 19,8 17,0 14 8 23 13 NE 1020,5 - 0,0
20.06.2018 08:00:00 18,7 17,0 13 7 29 15 NE 1020,5 15 0,0
20.06.2018 07:00:00 17,1 16,5 13 7 21 12 NE 1020,6 - 0,0
20.06.2018 06:00:00 16,9 16,1 14 7 22 12 NNE 1020,6 - 0,0
20.06.2018 05:00:00 17,3 16,3 14 8 22 12 NE 1021,0 22 0,0
20.06.2018 04:00:00 17,4 16,4 14 8 23 12 NNE 1021,2 - 0,0
20.06.2018 03:00:00 17,7 16,6 15 8 25 13 NE 1021,5 - 0,0
20.06.2018 02:00:00 18,1 16,8 16 8 27 14 NE 1021,9 - 0,0
20.06.2018 01:00:00 18,5 17,0 18 10 32 18 NE 1022,0 - 0,0
20.06.2018 00:00:00 19,2 17,3 18 10 32 18 NE 1022,3 - 0,0
19.06.2018 23:00:00 19,4 17,5 19 10 31 17 NNE 1022,5 - 0,0
19.06.2018 22:00:00 19,2 17,2 20 11 38 21 N 1022,2 - 0,0
19.06.2018 21:00:00 20,6 17,0 21 12 35 19 N 1022,4 - 0,0
19.06.2018 20:00:00 21,8 17,4 18 10 36 19 N 1022,7 20 0,0
19.06.2018 19:00:00 22,1 17,5 18 10 35 19 N 1023,0 - 0,0
19.06.2018 18:00:00 22,1 17,7 18 10 35 19 NNW 1023,8 - 0,0
19.06.2018 17:00:00 22,2 17,8 18 10 28 15 NNW 1024,4 - 0,0
19.06.2018 16:00:00 21,4 17,4 14 7 23 13 N 1024,9 - 0,0
19.06.2018 15:00:00 20,8 18,0 12 7 23 12 NNW 1025,4 - 0,0
19.06.2018 14:00:00 20,0 17,4 11 6 19 11 N 1025,7 - 0,0
19.06.2018 13:00:00 18,4 16,6 10 6 18 10 NNW 1026,1 - 0,0
19.06.2018 12:00:00 18,0 16,5 9 5 17 9 N 1026,1 - 0,0
19.06.2018 11:00:00 16,8 16,2 11 6 19 10 N 1026,3 0,3 0,0
19.06.2018 10:00:00 16,5 16,3 10 5 22 12 NNE 1026,4 - 0,0
19.06.2018 09:00:00 15,7 15,5 13 7 22 12 N 1026,4 - 0,0
19.06.2018 08:00:00 15,3 15,3 15 8 26 14 N 1026,5 0,1 0,2
19.06.2018 07:00:00 15,2 15,0 16 8 25 13 N 1026,5 - 0,0
19.06.2018 06:00:00 15,0 14,8 11 6 23 12 N 1026,4 - 0,0
19.06.2018 05:00:00 15,5 15,2 11 6 25 13 NNW 1026,3 - 0,0
19.06.2018 04:00:00 15,6 15,1 13 7 29 15 NNW 1026,5 - 0,0
19.06.2018 03:00:00 15,6 15,1 14 8 26 14 NNW 1026,1 - 0,0
19.06.2018 02:00:00 15,9 15,3 15 8 29 16 NNW 1026,3 - 0,0
19.06.2018 01:00:00 16,0 15,4 15 8 25 13 NW 1026,5 - 0,0
19.06.2018 00:00:00 16,2 15,6 14 8 26 14 NNW 1026,9 - 0,0
18.06.2018 23:00:00 16,2 15,2 14 8 22 12 NW 1026,7 20 0,0
18.06.2018 22:00:00 16,7 14,9 11 6 23 12 NW 1026,5 - 0,0
18.06.2018 21:00:00 18,1 14,4 13 7 25 14 NW 1026,2 - 0,0
18.06.2018 20:00:00 18,9 14,4 14 7 23 13 NW 1026,0 25 0,0
18.06.2018 19:00:00 19,4 14,2 12 6 23 12 NW 1026,0 - 0,0
18.06.2018 18:00:00 19,2 14,5 9 5 24 13 NW 1026,1 - 0,0
18.06.2018 17:00:00 18,7 13,8 12 7 26 14 NNW 1026,2 - 0,0
18.06.2018 16:00:00 18,4 13,5 13 7 25 13 NNW 1026,1 - 0,0
18.06.2018 15:00:00 18,5 14,2 13 7 24 13 N 1026,0 - 0,0
18.06.2018 14:00:00 18,4 13,5 14 7 29 16 NNW 1025,9 25 0,0
18.06.2018 13:00:00 18,3 13,8 12 7 31 17 NNW 1025,8 - 0,0
18.06.2018 12:00:00 17,6 13,3 12 7 29 16 NW 1025,7 - 0,0
18.06.2018 11:00:00 16,5 13,4 16 9 29 16 NW 1025,4 20 0,0
18.06.2018 10:00:00 15,9 14,4 14 7 31 17 NW 1025,2 - 0,0
18.06.2018 09:00:00 16,2 13,7 14 8 27 14 NNW 1024,7 - 0,0
18.06.2018 08:00:00 15,9 14,3 13 7 22 12 NW 1024,2 18 0,0
18.06.2018 07:00:00 16,0 14,4 12 7 22 12 NNW 1023,7 - 0,0
18.06.2018 06:00:00 16,1 14,5 12 7 33 18 WNW 1023,5 - 0,0
18.06.2018 05:00:00 15,9 14,8 18 10 37 20 WNW 1023,3 15 0,0
18.06.2018 04:00:00 16,7 16,4 18 10 37 20 WNW 1023,2 - 0,6
18.06.2018 03:00:00 16,8 16,3 12 7 29 16 W 1023,3 - 0,2
18.06.2018 02:00:00 17,2 16,1 10 6 27 15 W 1023,5 - 0,0
18.06.2018 01:00:00 17,1 16,1 11 6 32 17 W 1023,7 - 0,0
18.06.2018 00:00:00 17,0 15,9 13 7 32 17 W 1023,9 - 0,0
17.06.2018 23:00:00 17,2 15,5 14 8 33 18 WSW 1023,7 15 0,0
17.06.2018 22:00:00 16,7 15,6 11 6 32 18 W 1023,6 - 0,0
17.06.2018 21:00:00 16,5 15,2 16 9 36 20 W 1023,5 - 0,0
17.06.2018 20:00:00 17,0 14,3 18 10 35 19 WSW 1023,5 15 0,0
17.06.2018 19:00:00 17,2 13,7 16 9 34 19 W 1023,6 - 0,0
17.06.2018 18:00:00 18,0 13,1 15 8 34 18 WSW 1023,7 - 0,0
17.06.2018 17:00:00 18,7 12,7 16 9 35 19 WSW 1023,5 - 0,0
17.06.2018 16:00:00 19,1 12,6 14 8 31 17 W 1023,8 - 0,0
17.06.2018 15:00:00 19,5 12,7 13 7 31 17 W 1023,5 - 0,0
17.06.2018 14:00:00 19,2 11,7 14 7 29 16 W 1023,6 - 0,0
17.06.2018 13:00:00 19,2 11,0 12 6 29 16 W 1023,4 - 0,0
17.06.2018 12:00:00 18,7 11,0 13 7 29 15 W 1023,4 - 0,0
17.06.2018 11:00:00 18,1 11,2 14 7 31 17 W 1023,0 20 0,0
17.06.2018 10:00:00 16,6 11,7 16 9 27 15 WNW 1022,9 - 0,0
17.06.2018 09:00:00 15,9 11,5 3 2 10 6 SSW 1022,6 - 0,0
17.06.2018 08:00:00 15,3 11,5 6 3 10 5 NNE 1022,1 25 0,0
17.06.2018 07:00:00 15,0 10,6 8 4 14 8 N 1021,7 - 0,0
17.06.2018 06:00:00 14,7 10,1 8 4 18 10 NW 1021,6 - 0,0
17.06.2018 05:00:00 14,6 10,2 9 5 21 11 NW 1021,5 20 0,0
17.06.2018 04:00:00 14,6 10,6 13 7 26 14 NNW 1021,4 - 0,0
17.06.2018 03:00:00 15,0 11,0 13 7 27 15 NW 1021,3 - 0,0
17.06.2018 02:00:00 14,6 12,3 8 5 17 9 NW 1021,4 15 0,0
17.06.2018 01:00:00 14,6 12,3 10 5 18 10 NW 1021,1 - 0,0
17.06.2018 00:00:00 15,7 13,7 11 6 22 12 NNW 1021,3 - 0,0
16.06.2018 23:00:00 16,7 14,3 10 6 26 14 NW 1021,0 15 0,0
16.06.2018 22:00:00 16,8 14,4 11 6 24 13 W 1020,4 - 0,0
16.06.2018 21:00:00 17,0 14,3 13 7 29 16 W 1020,4 - 0,0
16.06.2018 20:00:00 16,8 13,3 16 9 33 18 WNW 1020,2 20 0,0
16.06.2018 19:00:00 17,6 13,3 13 7 29 16 W 1020,0 - 0,0
16.06.2018 18:00:00 16,9 12,4 15 8 33 18 W 1020,2 - 0,0
16.06.2018 17:00:00 19,5 12,5 11 6 31 17 W 1019,8 - 0,0
16.06.2018 16:00:00 19,3 12,6 11 6 29 15 W 1019,9 - 0,0
16.06.2018 15:00:00 19,0 11,6 13 7 29 16 W 1019,7 - 0,0
16.06.2018 14:00:00 19,3 12,1 11 6 26 14 W 1019,8 25 0,0
16.06.2018 13:00:00 19,0 12,0 10 6 25 14 W 1019,8 - 0,0
16.06.2018 12:00:00 18,5 12,3 10 6 23 13 W 1019,6 - 0,0
16.06.2018 11:00:00 18,5 11,1 12 6 27 14 W 1019,4 25 0,0
16.06.2018 10:00:00 17,8 10,9 13 7 28 15 WNW 1019,1 - 0,0
16.06.2018 09:00:00 16,0 12,5 12 6 22 12 NW 1019,0 - 0,0
16.06.2018 08:00:00 15,6 12,3 10 5 18 10 NW 1018,5 - 0,0
16.06.2018 07:00:00 14,0 11,5 12 7 19 11 NW 1018,1 - 0,0
16.06.2018 06:00:00 13,6 11,3 13 7 20 11 NW 1018,0 - 0,0
16.06.2018 05:00:00 14,2 11,9 12 7 21 11 NW 1018,0 - 0,0
16.06.2018 04:00:00 13,8 12,2 13 7 18 10 NW 1018,4 - 0,0
16.06.2018 03:00:00 13,9 12,1 14 8 18 10 NW 1018,5 - 0,0
16.06.2018 02:00:00 14,5 12,0 12 6 19 10 NW 1018,6 25 0,0
16.06.2018 01:00:00 15,1 12,0 13 7 22 12 NNW 1018,8 - 0,0
16.06.2018 00:00:00 15,1 12,2 14 8 22 12 NW 1018,8 - 0,0
15.06.2018 23:00:00 14,7 11,8 14 7 20 11 NW 1018,8 - 0,0

tt = temperature
td = dewpoint
ff = wind speed
fx = gusts
dd = wind direction
ppp = reduced air pressure
vv = visibility
rr = precipitation

Next stations